San Carlos, CA

2:20 AM PDT on July 25, 2017 (GMT -0700)
San Carlos

Weather History for KSQL - April, 2013

Change the Weather History Date:

Thursday, April 25, 2013

  Actual Average Record
Temperature  
Mean Temperature 60 °F -  
Max Temperature 66 °F 71 °F 88 °F (1965)
Min Temperature 53 °F 44 °F 37 °F (1964)
Degree Days  
Heating Degree Days 6    
Growing Degree Days 10 (Base 50)    
Moisture  
Dew Point 47 °F    
Average Humidity 72    
Maximum Humidity 82    
Minimum Humidity 52    
Precipitation  
Precipitation 0.00 in - - ()
Sea Level Pressure  
Sea Level Pressure 30.04 in    
Wind  
Wind Speed 4 mph (WNW)    
Max Wind Speed 16 mph    
Max Gust Speed 21 mph    
Visibility 10 miles    
Events      
Averages and records for this station are not official NWS values.
T = Trace of Precipitation, MM = Missing Value Source: NWS Daily Summary

Daily Weather History Graph

Daily Weather History Graph

Search for Another Location

Airport or City:

Trip Planner

Search our weather history database for the weather conditions in past years. The results will help you decide how hot, cold, wet, or windy it might be!

Date:

Astronomy

Apr. 25, 2013 Rise Set
Actual Time 6:20 AM PDT 7:53 PM PDT
Civil Twilight 5:52 AM PDT 8:21 PM PDT
Nautical Twilight 5:19 AM PDT 8:54 PM PDT
Astronomical Twilight 4:44 AM PDT 9:30 PM PDT
Moon 8:12 PM PDT 6:07 AM PDT
Length of Visible Light 14h 28m
Length of Day
13h 33m
Full, 100% of the Moon is Illuminated
Apr 25
Full
Apr 25
Full
May 2
Last Quarter
May 9
New
May 17
First Quarter

Hourly Weather History & Observations

Time (PDT) Temp. Dew Point Humidity Pressure Visibility Wind Dir Wind Speed Gust Speed Precip Events Conditions
12:15 AM 55.4 °F 48.2 °F 77% 29.97 in 10.0 mi Calm Calm - N/A   Clear
12:35 AM 55.4 °F 48.2 °F 77% 29.97 in 10.0 mi Calm Calm - N/A   Clear
12:55 AM 55.4 °F 48.2 °F 77% 29.97 in 10.0 mi Calm Calm - N/A   Clear
1:15 AM 55.4 °F 48.2 °F 77% 29.97 in 10.0 mi Calm Calm - N/A   Clear
1:35 AM 55.4 °F 48.2 °F 77% 29.97 in 10.0 mi WNW 3.5 mph - N/A   Clear
1:55 AM 55.4 °F 48.2 °F 77% 29.97 in 10.0 mi Calm Calm - N/A   Clear
2:15 AM 55.4 °F 48.2 °F 77% 29.97 in 10.0 mi WNW 3.5 mph - N/A   Clear
2:35 AM 55.4 °F 48.2 °F 77% 29.97 in 10.0 mi Calm Calm - N/A   Clear
2:55 AM 53.6 °F 48.2 °F 82% 29.97 in 10.0 mi Calm Calm - N/A   Clear
3:15 AM 53.6 °F 48.2 °F 82% 29.98 in 10.0 mi NW 3.5 mph - N/A   Clear
3:35 AM 53.6 °F 48.2 °F 82% 29.97 in 10.0 mi NW 3.5 mph - N/A   Clear
3:55 AM 53.6 °F 48.2 °F 82% 29.98 in 10.0 mi Calm Calm - N/A   Clear
4:15 AM 53.6 °F 46.4 °F 77% 29.98 in 10.0 mi Calm Calm - N/A   Clear
4:35 AM 53.6 °F 46.4 °F 77% 29.99 in 10.0 mi Calm Calm - N/A   Clear
4:55 AM 53.6 °F 46.4 °F 77% 29.99 in 10.0 mi Calm Calm - N/A   Clear
5:15 AM 53.6 °F 46.4 °F 77% 29.99 in 10.0 mi WNW 3.5 mph - N/A   Clear
5:35 AM 53.6 °F 46.4 °F 77% 30.00 in 10.0 mi Calm Calm - N/A   Clear
5:55 AM 53.6 °F 46.4 °F 77% 30.00 in 10.0 mi Calm Calm - N/A   Clear
6:15 AM 53.6 °F 46.4 °F 77% 30.01 in 10.0 mi WNW 3.5 mph - N/A   Clear
6:35 AM 53.6 °F 46.4 °F 77% 30.02 in 10.0 mi WNW 4.6 mph - N/A   Clear
6:47 AM 53.6 °F 46.4 °F 77% 30.02 in 10.0 mi Variable 3.5 mph - N/A   Scattered Clouds
6:55 AM 53.6 °F 46.4 °F 77% 30.03 in 10.0 mi WSW 4.6 mph - N/A   Clear
7:54 AM 57.2 °F 48.2 °F 72% 30.04 in 10.0 mi ESE 3.5 mph - N/A   Scattered Clouds
8:51 AM 59.0 °F 46.4 °F 63% 30.06 in 10.0 mi WSW 5.8 mph - N/A   Mostly Cloudy
9:47 AM 59.0 °F 46.4 °F 63% 30.07 in 10.0 mi West 4.6 mph - N/A   Mostly Cloudy
10:55 AM 62.6 °F 46.4 °F 55% 30.08 in 10.0 mi West 10.4 mph - N/A   Scattered Clouds
11:54 AM 64.4 °F 48.2 °F 56% 30.08 in 10.0 mi WNW 12.7 mph 18.4 mph N/A   Partly Cloudy
12:47 PM 66.2 °F 48.2 °F 52% 30.07 in 10.0 mi NW 15.0 mph - N/A   Partly Cloudy
1:47 PM 66.2 °F 48.2 °F 52% 30.06 in 10.0 mi WNW 16.1 mph - N/A   Partly Cloudy
2:48 PM 66.2 °F 48.2 °F 52% 30.08 in 10.0 mi West 16.1 mph 20.7 mph N/A   Partly Cloudy
3:50 PM 64.4 °F 48.2 °F 56% 30.08 in 10.0 mi West 15.0 mph - N/A   Partly Cloudy
5:52 PM 60.8 °F 48.2 °F 63% 30.09 in 10.0 mi West 15.0 mph 19.6 mph N/A   Partly Cloudy
7:47 PM 57.2 °F 46.4 °F 67% 30.11 in 10.0 mi WNW 12.7 mph - N/A   Partly Cloudy
8:47 PM 55.4 °F 46.4 °F 72% 30.13 in 10.0 mi West 9.2 mph - N/A   Scattered Clouds
9:15 PM 55.4 °F 46.4 °F 72% 30.14 in 10.0 mi WNW 8.1 mph - N/A   Clear
9:35 PM 55.4 °F 46.4 °F 72% 30.15 in 10.0 mi NW 9.2 mph - N/A   Clear
9:55 PM 55.4 °F 46.4 °F 72% 30.15 in 10.0 mi WNW 8.1 mph - N/A   Clear
10:15 PM 55.4 °F 46.4 °F 72% 30.15 in 10.0 mi WNW 6.9 mph - N/A   Partly Cloudy
10:35 PM 53.6 °F 46.4 °F 77% 30.16 in 10.0 mi NW 10.4 mph - N/A   Unknown
10:55 PM 53.6 °F 46.4 °F 77% 30.16 in 10.0 mi WNW 6.9 mph - N/A   Overcast
11:15 PM 53.6 °F 46.4 °F 77% 30.16 in 10.0 mi WNW 5.8 mph - N/A   Overcast
11:35 PM 53.6 °F 46.4 °F 77% 30.16 in 10.0 mi WNW 5.8 mph - N/A   Overcast